"Sample Date","Sample Time","Sample Value","Units","Flow Rate","Laser Status","Micron Size 0","Counts/Channel 0","Micron Size 1","Counts/Channel 1","Micron Size 2","Counts/Channel 2","Micron Size 3","Counts/Channel 3","Micron Size 4","Counts/Channel 4","Micron Size 5","Counts/Channel 5","Micron Size 6","Counts/Channel 6","Micron Size 7","Counts/Channel 7","Micron Size 8","Counts/Channel 8","Micron Size 9","Counts/Channel 9","Micron Size 10","Counts/Channel 10","Micron Size 11","Counts/Channel 11","Micron Size 12","Counts/Channel 12","Micron Size 13","Counts/Channel 13","Micron Size 14","Counts/Channel 14","Micron Size 15","Counts/Channel 15","Micron Size 16","Counts/Channel 16","Micron Size 17","Counts/Channel 17","Micron Size 18","Counts/Channel 18","Micron Size 19","Counts/Channel 19","Micron Size 20","Counts/Channel 20","Micron Size 21","Counts/Channel 21","Micron Size 22","Counts/Channel 22","Micron Size 23","Counts/Channel 23","Micron Size 24","Counts/Channel 24","Micron Size 25","Counts/Channel 25","Micron Size 26","Counts/Channel 26","Micron Size 27","Counts/Channel 27","Micron Size 28","Counts/Channel 28","Micron Size 29","Counts/Channel 29","Micron Size 30","Counts/Channel 30","Micron Size 31","Counts/Channel 31"
"05/02/07","16:00:02",42093.000,"cc",28403.945,1,0.100,34765.000,0.200,6619.000,0.300,582.000,0.500,93.000,1.000,34.000,5.000,0
"05/02/07","16:00:08",41557.000,"cc",28371.225,1,0.100,34423.000,0.200,6461.000,0.300,537.000,0.500,102.000,1.000,34.000,5.000,0
"05/02/07","16:00:14",38625.000,"cc",28272.418,1,0.100,31984.000,0.200,6002.000,0.300,522.000,0.500,95.000,1.000,22.000,5.000,0
"05/02/07","16:00:20",40683.000,"cc",28314.178,1,0.100,33648.000,0.200,6377.000,0.300,536.000,0.500,93.000,1.000,29.000,5.000,0
"05/02/07","16:00:26",40095.000,"cc",28320.309,1,0.100,33228.000,0.200,6189.000,0.300,562.000,0.500,90.000,1.000,26.000,5.000,0
"05/02/07","16:00:32",39845.000,"cc",28378.525,1,0.100,32797.000,0.200,6381.000,0.300,548.000,0.500,95.000,1.000,24.000,5.000,0
"05/02/07","16:00:38",38904.000,"cc",28285.690,1,0.100,32312.000,0.200,5974.000,0.300,492.000,0.500,96.000,1.000,30.000,5.000,0
"05/02/07","16:00:44",38594.000,"cc",28266.121,1,0.100,31966.000,0.200,6038.000,0.300,478.000,0.500,88.000,1.000,24.000,5.000,0
"05/02/07","16:00:50",38402.000,"cc",28328.873,1,0.100,31817.000,0.200,5989.000,0.300,475.000,0.500,87.000,1.000,34.000,5.000,0
"05/02/07","16:00:56",40327.000,"cc",28334.359,1,0.100,33468.000,0.200,6239.000,0.300,527.000,0.500,70.000,1.000,23.000,5.000,0
"05/02/07","16:01:02",40726.000,"cc",28329.076,1,0.100,33752.000,0.200,6317.000,0.300,551.000,0.500,85.000,1.000,21.000,5.000,0
"05/02/07","16:01:08",40402.000,"cc",28275.443,1,0.100,33449.000,0.200,6319.000,0.300,522.000,0.500,89.000,1.000,23.000,5.000,0
"05/02/07","16:01:14",40333.000,"cc",28358.369,1,0.100,33351.000,0.200,6345.000,0.300,530.000,0.500,85.000,1.000,22.000,5.000,0
"05/02/07","16:01:20",39619.000,"cc",28222.020,1,0.100,32743.000,0.200,6243.000,0.300,518.000,0.500,83.000,1.000,32.000,5.000,0
"05/02/07","16:01:26",37359.000,"cc",28361.424,1,0.100,30899.000,0.200,5819.000,0.300,523.000,0.500,90.000,1.000,28.000,5.000,0
"05/02/07","16:01:32",37455.000,"cc",28336.629,1,0.100,31199.000,0.200,5611.000,0.300,536.000,0.500,82.000,1.000,27.000,5.000,0
"05/02/07","16:01:38",37131.000,"cc",28306.598,1,0.100,30932.000,0.200,5602.000,0.300,483.000,0.500,84.000,1.000,30.000,5.000,0
"05/02/07","16:01:44",37119.000,"cc",28290.473,1,0.100,30742.000,0.200,5734.000,0.300,537.000,0.500,78.000,1.000,28.000,5.000,0
"05/02/07","16:01:50",37463.000,"cc",28322.303,1,0.100,31049.000,0.200,5746.000,0.300,545.000,0.500,100.000,1.000,23.000,5.000,0
"05/02/07","16:01:56",36740.000,"cc",28317.674,1,0.100,30566.000,0.200,5543.000,0.300,519.000,0.500,93.000,1.000,19.000,5.000,0
"05/02/07","16:02:02",36797.000,"cc",28318.172,1,0.100,30537.000,0.200,5563.000,0.300,569.000,0.500,94.000,1.000,34.000,5.000,0
"05/02/07","16:02:08",36708.000,"cc",28393.277,1,0.100,30426.000,0.200,5659.000,0.300,506.000,0.500,87.000,1.000,30.000,5.000,0
"05/02/07","16:02:14",37098.000,"cc",28316.941,1,0.100,30654.000,0.200,5750.000,0.300,555.000,0.500,106.000,1.000,33.000,5.000,0
"05/02/07","16:02:20",36877.000,"cc",28321.111,1,0.100,30532.000,0.200,5670.000,0.300,555.000,0.500,99.000,1.000,21.000,5.000,0
"05/02/07","16:02:26",37270.000,"cc",28319.246,1,0.100,30755.000,0.200,5767.000,0.300,601.000,0.500,119.000,1.000,28.000,5.000,0
"05/02/07","16:02:32",36783.000,"cc",28295.781,1,0.100,30638.000,0.200,5469.000,0.300,566.000,0.500,89.000,1.000,21.000,5.000,0
"05/02/07","16:02:38",38655.000,"cc",28333.072,1,0.100,32002.000,0.200,5952.000,0.300,572.000,0.500,106.000,1.000,23.000,5.000,0
"05/02/07","16:02:44",38717.000,"cc",28297.311,1,0.100,32054.000,0.200,5910.000,0.300,613.000,0.500,112.000,1.000,28.000,5.000,0
"05/02/07","16:02:50",36592.000,"cc",28339.539,1,0.100,30195.000,0.200,5674.000,0.300,562.000,0.500,129.000,1.000,32.000,5.000,0
"05/02/07","16:02:56",34662.000,"cc",28278.289,1,0.100,28644.000,0.200,5363.000,0.300,538.000,0.500,95.000,1.000,22.000,5.000,0
"05/02/07","16:03:02",35775.000,"cc",28248.943,1,0.100,29626.000,0.200,5496.000,0.300,537.000,0.500,91.000,1.000,25.000,5.000,0
"05/02/07","16:03:08",36567.000,"cc",28348.250,1,0.100,30229.000,0.200,5664.000,0.300,533.000,0.500,102.000,1.000,39.000,5.000,0
"05/02/07","16:03:14",35424.000,"cc",28339.361,1,0.100,29246.000,0.200,5454.000,0.300,587.000,0.500,111.000,1.000,26.000,5.000,0
"05/02/07","16:03:20",35936.000,"cc",28320.184,1,0.100,29697.000,0.200,5550.000,0.300,574.000,0.500,88.000,1.000,27.000,5.000,0
"05/02/07","16:03:26",34069.000,"cc",28293.057,1,0.100,28104.000,0.200,5333.000,0.300,515.000,0.500,95.000,1.000,22.000,5.000,0
"05/02/07","16:03:32",36275.000,"cc",28255.352,1,0.100,30017.000,0.200,5516.000,0.300,594.000,0.500,112.000,1.000,36.000,5.000,0
"05/02/07","16:03:38",40358.000,"cc",28328.031,1,0.100,33598.000,0.200,5906.000,0.300,719.000,0.500,113.000,1.000,22.000,5.000,0
"05/02/07","16:03:44",34595.000,"cc",28318.549,1,0.100,28720.000,0.200,5251.000,0.300,507.000,0.500,92.000,1.000,25.000,5.000,0
"05/02/07","16:03:50",37330.000,"cc",28323.844,1,0.100,31005.000,0.200,5589.000,0.300,622.000,0.500,85.000,1.000,29.000,5.000,0
"05/02/07","16:03:56",41336.000,"cc",28305.973,1,0.100,34371.000,0.200,6114.000,0.300,717.000,0.500,105.000,1.000,29.000,5.000,0
"05/02/07","16:04:02",43624.000,"cc",28355.445,1,0.100,36293.000,0.200,6458.000,0.300,747.000,0.500,101.000,1.000,25.000,5.000,0
"05/02/07","16:04:08",43654.000,"cc",28299.645,1,0.100,36633.000,0.200,6137.000,0.300,752.000,0.500,105.000,1.000,27.000,5.000,0
"05/02/07","16:04:14",45760.000,"cc",28333.031,1,0.100,38362.000,0.200,6527.000,0.300,731.000,0.500,116.000,1.000,24.000,5.000,0
"05/02/07","16:04:20",41596.000,"cc",28288.344,1,0.100,34735.000,0.200,6058.000,0.300,674.000,0.500,101.000,1.000,28.000,5.000,0
"05/02/07","16:04:26",40449.000,"cc",28326.748,1,0.100,33672.000,0.200,5979.000,0.300,678.000,0.500,100.000,1.000,20.000,5.000,0
"05/02/07","16:04:32",41106.000,"cc",28316.820,1,0.100,34355.000,0.200,5939.000,0.300,670.000,0.500,111.000,1.000,31.000,5.000,0
"05/02/07","16:04:38",39084.000,"cc",28268.178,1,0.100,32549.000,0.200,5796.000,0.300,600.000,0.500,111.000,1.000,28.000,5.000,0
"05/02/07","16:04:44",38554.000,"cc",28359.203,1,0.100,32081.000,0.200,5711.000,0.300,622.000,0.500,116.000,1.000,24.000,5.000,0
"05/02/07","16:04:50",38808.000,"cc",28390.385,1,0.100,32429.000,0.200,5666.000,0.300,577.000,0.500,111.000,1.000,25.000,5.000,0
"05/02/07","16:04:56",38256.000,"cc",28307.662,1,0.100,32032.000,0.200,5489.000,0.300,602.000,0.500,104.000,1.000,29.000,5.000,0
"05/02/07","16:05:02",38779.000,"cc",28296.801,1,0.100,32403.000,0.200,5662.000,0.300,577.000,0.500,109.000,1.000,28.000,5.000,0
"05/02/07","16:05:08",37163.000,"cc",28335.818,1,0.100,30994.000,0.200,5481.000,0.300,567.000,0.500,91.000,1.000,30.000,5.000,0
"05/02/07","16:05:14",37766.000,"cc",28274.414,1,0.100,31372.000,0.200,5714.000,0.300,545.000,0.500,105.000,1.000,30.000,5.000,0
"05/02/07","16:05:20",36866.000,"cc",28327.582,1,0.100,30775.000,0.200,5457.000,0.300,523.000,0.500,85.000,1.000,26.000,5.000,0
"05/02/07","16:05:26",37934.000,"cc",28379.799,1,0.100,31666.000,0.200,5630.000,0.300,527.000,0.500,87.000,1.000,24.000,5.000,0
"05/02/07","16:05:32",38919.000,"cc",28295.533,1,0.100,32410.000,0.200,5810.000,0.300,561.000,0.500,108.000,1.000,30.000,5.000,0
"05/02/07","16:05:38",36923.000,"cc",28261.109,1,0.100,30786.000,0.200,5459.000,0.300,546.000,0.500,111.000,1.000,21.000,5.000,0
"05/02/07","16:05:44",37169.000,"cc",28378.701,1,0.100,30883.000,0.200,5635.000,0.300,530.000,0.500,95.000,1.000,26.000,5.000,0
"05/02/07","16:05:50",37282.000,"cc",28302.744,1,0.100,31045.000,0.200,5558.000,0.300,530.000,0.500,120.000,1.000,28.000,5.000,1.000
"05/02/07","16:05:56",37459.000,"cc",28348.891,1,0.100,31148.000,0.200,5625.000,0.300,556.000,0.500,99.000,1.000,31.000,5.000,0
"05/02/07","16:06:02",37334.000,"cc",28287.877,1,0.100,31098.000,0.200,5565.000,0.300,537.000,0.500,95.000,1.000,39.000,5.000,0
"05/02/07","16:06:08",37530.000,"cc",28279.717,1,0.100,31263.000,0.200,5625.000,0.300,505.000,0.500,111.000,1.000,26.000,5.000,0
"05/02/07","16:06:14",37009.000,"cc",28286.494,1,0.100,30763.000,0.200,5643.000,0.300,499.000,0.500,75.000,1.000,29.000,5.000,0
"05/02/07","16:06:20",34754.000,"cc",28337.613,1,0.100,28857.000,0.200,5288.000,0.300,480.000,0.500,94.000,1.000,35.000,5.000,0
"05/02/07","16:06:26",33809.000,"cc",28398.490,1,0.100,28080.000,0.200,5117.000,0.300,491.000,0.500,91.000,1.000,30.000,5.000,0
"05/02/07","16:06:32",32923.000,"cc",28325.047,1,0.100,27181.000,0.200,5131.000,0.300,486.000,0.500,88.000,1.000,37.000,5.000,0
"05/02/07","16:06:38",33657.000,"cc",28261.570,1,0.100,27882.000,0.200,5184.000,0.300,490.000,0.500,83.000,1.000,18.000,5.000,0
"05/02/07","16:06:44",33741.000,"cc",28325.711,1,0.100,27901.000,0.200,5228.000,0.300,490.000,0.500,92.000,1.000,30.000,5.000,0
"05/02/07","16:06:50",35264.000,"cc",28341.307,1,0.100,29506.000,0.200,5153.000,0.300,493.000,0.500,91.000,1.000,21.000,5.000,0
"05/02/07","16:06:56",34500.000,"cc",28298.656,1,0.100,28672.000,0.200,5154.000,0.300,543.000,0.500,90.000,1.000,41.000,5.000,0
"05/02/07","16:07:02",35259.000,"cc",28256.195,1,0.100,29415.000,0.200,5150.000,0.300,543.000,0.500,119.000,1.000,32.000,5.000,0
"05/02/07","16:07:08",34125.000,"cc",28353.174,1,0.100,28466.000,0.200,5068.000,0.300,479.000,0.500,86.000,1.000,26.000,5.000,0
"05/02/07","16:07:14",32978.000,"cc",28330.604,1,0.100,27407.000,0.200,4956.000,0.300,484.000,0.500,108.000,1.000,23.000,5.000,0
"05/02/07","16:07:20",33153.000,"cc",28341.191,1,0.100,27496.000,0.200,4992.000,0.300,555.000,0.500,85.000,1.000,25.000,5.000,0
"05/02/07","16:07:26",34231.000,"cc",28276.111,1,0.100,28338.000,0.200,5242.000,0.300,541.000,0.500,91.000,1.000,19.000,5.000,0
"05/02/07","16:07:32",38803.000,"cc",28355.707,1,0.100,32165.000,0.200,5911.000,0.300,599.000,0.500,92.000,1.000,36.000,5.000,0
"05/02/07","16:07:38",40122.000,"cc",28328.232,1,0.100,33373.000,0.200,6027.000,0.300,612.000,0.500,86.000,1.000,24.000,5.000,0
"05/02/07","16:07:44",41275.000,"cc",28274.215,1,0.100,34268.000,0.200,6282.000,0.300,581.000,0.500,115.000,1.000,29.000,5.000,0
"05/02/07","16:07:50",41889.000,"cc",28281.248,1,0.100,34933.000,0.200,6247.000,0.300,583.000,0.500,97.000,1.000,29.000,5.000,0
"05/02/07","16:07:56",42018.000,"cc",28311.791,1,0.100,35012.000,0.200,6290.000,0.300,598.000,0.500,98.000,1.000,20.000,5.000,0
"05/02/07","16:08:02",42972.000,"cc",28377.408,1,0.100,35869.000,0.200,6419.000,0.300,578.000,0.500,81.000,1.000,25.000,5.000,0
"05/02/07","16:08:08",44157.000,"cc",28348.199,1,0.100,36758.000,0.200,6691.000,0.300,581.000,0.500,97.000,1.000,30.000,5.000,0
"05/02/07","16:08:14",43125.000,"cc",28299.352,1,0.100,35924.000,0.200,6550.000,0.300,520.000,0.500,98.000,1.000,33.000,5.000,0
"05/02/07","16:08:20",42685.000,"cc",28279.508,1,0.100,35539.000,0.200,6454.000,0.300,552.000,0.500,106.000,1.000,34.000,5.000,0
"05/02/07","16:08:26",41952.000,"cc",28317.201,1,0.100,34923.000,0.200,6353.000,0.300,566.000,0.500,86.000,1.000,24.000,5.000,0
"05/02/07","16:08:32",39744.000,"cc",28300.525,1,0.100,32982.000,0.200,6109.000,0.300,529.000,0.500,87.000,1.000,37.000,5.000,0
"05/02/07","16:08:38",39753.000,"cc",28372.572,1,0.100,33122.000,0.200,5992.000,0.300,502.000,0.500,107.000,1.000,30.000,5.000,0
"05/02/07","16:08:44",38358.000,"cc",28314.604,1,0.100,32025.000,0.200,5651.000,0.300,547.000,0.500,105.000,1.000,30.000,5.000,0
"05/02/07","16:08:50",37681.000,"cc",28277.744,1,0.100,31313.000,0.200,5747.000,0.300,503.000,0.500,85.000,1.000,33.000,5.000,0
"05/02/07","16:08:56",36473.000,"cc",28330.955,1,0.100,30155.000,0.200,5709.000,0.300,489.000,0.500,91.000,1.000,29.000,5.000,0
"05/02/07","16:09:02",35342.000,"cc",28325.986,1,0.100,29357.000,0.200,5416.000,0.300,468.000,0.500,80.000,1.000,21.000,5.000,0
"05/02/07","16:09:08",34726.000,"cc",28263.125,1,0.100,28900.000,0.200,5268.000,0.300,467.000,0.500,69.000,1.000,22.000,5.000,0
"05/02/07","16:09:14",34119.000,"cc",28296.012,1,0.100,28175.000,0.200,5349.000,0.300,473.000,0.500,95.000,1.000,27.000,5.000,0
"05/02/07","16:09:20",33284.000,"cc",28383.512,1,0.100,27593.000,0.200,5090.000,0.300,486.000,0.500,98.000,1.000,17.000,5.000,0
"05/02/07","16:09:26",33440.000,"cc",28316.063,1,0.100,27771.000,0.200,5039.000,0.300,509.000,0.500,92.000,1.000,29.000,5.000,0
"05/02/07","16:09:32",33325.000,"cc",28288.328,1,0.100,27683.000,0.200,5067.000,0.300,461.000,0.500,83.000,1.000,31.000,5.000,0
"05/02/07","16:09:38",33584.000,"cc",28247.553,1,0.100,27768.000,0.200,5246.000,0.300,450.000,0.500,95.000,1.000,25.000,5.000,0
"05/02/07","16:09:44",33327.000,"cc",28321.553,1,0.100,27578.000,0.200,5142.000,0.300,463.000,0.500,111.000,1.000,33.000,5.000,0
"05/02/07","16:09:50",32758.000,"cc",28329.070,1,0.100,26986.000,0.200,5226.000,0.300,428.000,0.500,89.000,1.000,29.000,5.000,0
"05/02/07","16:09:56",31947.000,"cc",28322.623,1,0.100,26314.000,0.200,5051.000,0.300,441.000,0.500,110.000,1.000,31.000,5.000,0
"05/02/07","16:10:02",30981.000,"cc",28263.082,1,0.100,25604.000,0.200,4781.000,0.300,466.000,0.500,100.000,1.000,29.000,5.000,1.000
"05/02/07","16:10:08",30962.000,"cc",28358.148,1,0.100,25443.000,0.200,4907.000,0.300,474.000,0.500,105.000,1.000,33.000,5.000,0
"05/02/07","16:10:14",30752.000,"cc",28386.871,1,0.100,25379.000,0.200,4791.000,0.300,452.000,0.500,94.000,1.000,36.000,5.000,0
"05/02/07","16:10:20",30933.000,"cc",28302.420,1,0.100,25552.000,0.200,4812.000,0.300,458.000,0.500,84.000,1.000,27.000,5.000,0
"05/02/07","16:10:26",31202.000,"cc",28291.940,1,0.100,25730.000,0.200,4865.000,0.300,476.000,0.500,91.000,1.000,40.000,5.000,0
"05/02/07","16:10:32",30548.000,"cc",28329.272,1,0.100,25277.000,0.200,4726.000,0.300,415.000,0.500,100.000,1.000,30.000,5.000,0
"05/02/07","16:10:38",30421.000,"cc",28323.945,1,0.100,25102.000,0.200,4717.000,0.300,452.000,0.500,114.000,1.000,36.000,5.000,0
"05/02/07","16:10:44",30656.000,"cc",28288.746,1,0.100,25314.000,0.200,4712.000,0.300,463.000,0.500,126.000,1.000,40.000,5.000,1.000
"05/02/07","16:10:50",30102.000,"cc",28308.697,1,0.100,24972.000,0.200,4541.000,0.300,465.000,0.500,93.000,1.000,31.000,5.000,0
"05/02/07","16:10:56",29903.000,"cc",28379.949,1,0.100,24751.000,0.200,4599.000,0.300,418.000,0.500,108.000,1.000,27.000,5.000,0
"05/02/07","16:11:02",29967.000,"cc",28278.209,1,0.100,24719.000,0.200,4627.000,0.300,478.000,0.500,110.000,1.000,33.000,5.000,0
"05/02/07","16:11:08",30522.000,"cc",28281.775,1,0.100,25244.000,0.200,4604.000,0.300,533.000,0.500,103.000,1.000,38.000,5.000,0
"05/02/07","16:11:14",30945.000,"cc",28331.117,1,0.100,25646.000,0.200,4728.000,0.300,445.000,0.500,103.000,1.000,23.000,5.000,0
"05/02/07","16:11:20",31445.000,"cc",28354.145,1,0.100,26025.000,0.200,4809.000,0.300,469.000,0.500,106.000,1.000,36.000,5.000,0
"05/02/07","16:11:26",31619.000,"cc",28314.275,1,0.100,26221.000,0.200,4772.000,0.300,486.000,0.500,106.000,1.000,34.000,5.000,0
"05/02/07","16:11:32",30088.000,"cc",28285.572,1,0.100,24859.000,0.200,4673.000,0.300,421.000,0.500,100.000,1.000,35.000,5.000,0
"05/02/07","16:11:38",30512.000,"cc",28357.279,1,0.100,25140.000,0.200,4767.000,0.300,473.000,0.500,104.000,1.000,28.000,5.000,0
"05/02/07","16:11:44",29532.000,"cc",28289.998,1,0.100,24382.000,0.200,4568.000,0.300,445.000,0.500,98.000,1.000,39.000,5.000,0
"05/02/07","16:11:50",29714.000,"cc",28312.664,1,0.100,24576.000,0.200,4515.000,0.300,473.000,0.500,113.000,1.000,37.000,5.000,0
"05/02/07","16:11:56",29909.000,"cc",28322.449,1,0.100,24678.000,0.200,4600.000,0.300,472.000,0.500,120.000,1.000,39.000,5.000,0
"05/02/07","16:12:02",29976.000,"cc",28311.387,1,0.100,24734.000,0.200,4588.000,0.300,491.000,0.500,119.000,1.000,44.000,5.000,0
"05/02/07","16:12:08",30056.000,"cc",28296.463,1,0.100,24806.000,0.200,4614.000,0.300,485.000,0.500,119.000,1.000,32.000,5.000,0
"05/02/07","16:12:14",30758.000,"cc",28351.793,1,0.100,25434.000,0.200,4740.000,0.300,428.000,0.500,133.000,1.000,23.000,5.000,0
"05/02/07","16:12:20",31300.000,"cc",28269.639,1,0.100,25869.000,0.200,4775.000,0.300,488.000,0.500,126.000,1.000,42.000,5.000,0
"05/02/07","16:12:26",31645.000,"cc",28338.359,1,0.100,26148.000,0.200,4887.000,0.300,466.000,0.500,110.000,1.000,34.000,5.000,0
"05/02/07","16:12:32",35505.000,"cc",28296.397,1,0.100,29364.000,0.200,5501.000,0.300,495.000,0.500,118.000,1.000,27.000,5.000,0
"05/02/07","16:12:38",36319.000,"cc",28321.344,1,0.100,30093.000,0.200,5592.000,0.300,493.000,0.500,115.000,1.000,26.000,5.000,0
"05/02/07","16:12:44",35729.000,"cc",28310.283,1,0.100,29701.000,0.200,5382.000,0.300,492.000,0.500,115.000,1.000,39.000,5.000,0
"05/02/07","16:12:50",34553.000,"cc",28340.223,1,0.100,28594.000,0.200,5329.000,0.300,489.000,0.500,107.000,1.000,34.000,5.000,0
"05/02/07","16:12:56",35517.000,"cc",28279.486,1,0.100,29482.000,0.200,5320.000,0.300,546.000,0.500,134.000,1.000,35.000,5.000,0
"05/02/07","16:13:02",35907.000,"cc",28320.326,1,0.100,29843.000,0.200,5386.000,0.300,521.000,0.500,117.000,1.000,40.000,5.000,0
"05/02/07","16:13:08",34653.000,"cc",28309.166,1,0.100,28650.000,0.200,5381.000,0.300,471.000,0.500,107.000,1.000,44.000,5.000,0
"05/02/07","16:13:14",33632.000,"cc",28345.203,1,0.100,27911.000,0.200,5143.000,0.300,463.000,0.500,94.000,1.000,21.000,5.000,0
"05/02/07","16:13:20",33885.000,"cc",28330.619,1,0.100,28085.000,0.200,5195.000,0.300,476.000,0.500,99.000,1.000,30.000,5.000,0
"05/02/07","16:13:26",35244.000,"cc",28320.981,1,0.100,29176.000,0.200,5416.000,0.300,510.000,0.500,108.000,1.000,34.000,5.000,0
"05/02/07","16:13:32",37430.000,"cc",28338.305,1,0.100,31269.000,0.200,5558.000,0.300,456.000,0.500,124.000,1.000,23.000,5.000,0
"05/02/07","16:13:38",38510.000,"cc",28311.121,1,0.100,32056.000,0.200,5779.000,0.300,520.000,0.500,131.000,1.000,24.000,5.000,0
"05/02/07","16:13:44",37670.000,"cc",28281.395,1,0.100,31274.000,0.200,5800.000,0.300,456.000,0.500,107.000,1.000,33.000,5.000,0
"05/02/07","16:13:50",38185.000,"cc",28314.838,1,0.100,31784.000,0.200,5781.000,0.300,491.000,0.500,100.000,1.000,29.000,5.000,0
"05/02/07","16:13:56",36751.000,"cc",28337.861,1,0.100,30593.000,0.200,5538.000,0.300,471.000,0.500,116.000,1.000,33.000,5.000,0
"05/02/07","16:14:02",38356.000,"cc",28298.856,1,0.100,31896.000,0.200,5857.000,0.300,478.000,0.500,95.000,1.000,30.000,5.000,0
"05/02/07","16:14:08",39217.000,"cc",28330.299,1,0.100,32632.000,0.200,5922.000,0.300,518.000,0.500,106.000,1.000,39.000,5.000,0
"05/02/07","16:14:14",37432.000,"cc",28356.465,1,0.100,31218.000,0.200,5614.000,0.300,471.000,0.500,103.000,1.000,26.000,5.000,0
"05/02/07","16:14:20",37730.000,"cc",28226.727,1,0.100,31471.000,0.200,5642.000,0.300,475.000,0.500,107.000,1.000,35.000,5.000,0
"05/02/07","16:14:26",38677.000,"cc",28301.107,1,0.100,32080.000,0.200,5973.000,0.300,482.000,0.500,108.000,1.000,34.000,5.000,0
"05/02/07","16:14:32",36892.000,"cc",28283.779,1,0.100,30721.000,0.200,5588.000,0.300,456.000,0.500,94.000,1.000,33.000,5.000,0
"05/02/07","16:14:38",35697.000,"cc",28360.781,1,0.100,29796.000,0.200,5285.000,0.300,473.000,0.500,113.000,1.000,30.000,5.000,0
"05/02/07","16:14:44",35797.000,"cc",28370.928,1,0.100,29644.000,0.200,5583.000,0.300,423.000,0.500,115.000,1.000,32.000,5.000,0
"05/02/07","16:14:50",36177.000,"cc",28288.090,1,0.100,30099.000,0.200,5478.000,0.300,464.000,0.500,102.000,1.000,34.000,5.000,0
"05/02/07","16:14:56",35395.000,"cc",28349.926,1,0.100,29440.000,0.200,5370.000,0.300,447.000,0.500,99.000,1.000,39.000,5.000,0
"05/02/07","16:15:02",35351.000,"cc",28315.652,1,0.100,29361.000,0.200,5394.000,0.300,437.000,0.500,124.000,1.000,35.000,5.000,0
"05/02/07","16:15:08",32957.000,"cc",28316.285,1,0.100,27399.000,0.200,4979.000,0.300,465.000,0.500,88.000,1.000,26.000,5.000,0
"05/02/07","16:15:14",33101.000,"cc",28280.975,1,0.100,27419.000,0.200,5099.000,0.300,446.000,0.500,102.000,1.000,35.000,5.000,0
"05/02/07","16:15:20",33278.000,"cc",28275.557,1,0.100,27547.000,0.200,5120.000,0.300,462.000,0.500,109.000,1.000,40.000,5.000,0
"05/02/07","16:15:26",32214.000,"cc",28305.984,1,0.100,26771.000,0.200,4914.000,0.300,413.000,0.500,82.000,1.000,34.000,5.000,0
"05/02/07","16:15:32",31864.000,"cc",28331.100,1,0.100,26340.000,0.200,4918.000,0.300,451.000,0.500,116.000,1.000,39.000,5.000,0
"05/02/07","16:15:38",31597.000,"cc",28371.336,1,0.100,26074.000,0.200,4946.000,0.300,448.000,0.500,93.000,1.000,36.000,5.000,0
"05/02/07","16:15:44",30994.000,"cc",28308.793,1,0.100,25645.000,0.200,4771.000,0.300,435.000,0.500,113.000,1.000,30.000,5.000,0
"05/02/07","16:15:50",30353.000,"cc",28336.801,1,0.100,24942.000,0.200,4888.000,0.300,405.000,0.500,86.000,1.000,32.000,5.000,0
"05/02/07","16:15:56",32167.000,"cc",28308.961,1,0.100,26572.000,0.200,5028.000,0.300,417.000,0.500,120.000,1.000,30.000,5.000,0
"05/02/07","16:16:02",33718.000,"cc",28270.381,1,0.100,28036.000,0.200,5116.000,0.300,430.000,0.500,109.000,1.000,27.000,5.000,0
"05/02/07","16:16:08",37104.000,"cc",28306.273,1,0.100,30895.000,0.200,5616.000,0.300,469.000,0.500,93.000,1.000,31.000,5.000,0
"05/02/07","16:16:14",38905.000,"cc",28322.936,1,0.100,32309.000,0.200,5960.000,0.300,488.000,0.500,111.000,1.000,37.000,5.000,0
"05/02/07","16:16:20",38152.000,"cc",28320.172,1,0.100,31652.000,0.200,5866.000,0.300,511.000,0.500,102.000,1.000,21.000,5.000,0
"05/02/07","16:16:26",38197.000,"cc",28288.248,1,0.100,31933.000,0.200,5707.000,0.300,435.000,0.500,91.000,1.000,31.000,5.000,0
"05/02/07","16:16:32",37795.000,"cc",28340.270,1,0.100,31405.000,0.200,5790.000,0.300,479.000,0.500,96.000,1.000,25.000,5.000,0
"05/02/07","16:16:38",35919.000,"cc",28313.115,1,0.100,29908.000,0.200,5443.000,0.300,459.000,0.500,89.000,1.000,20.000,5.000,0
"05/02/07","16:16:44",35857.000,"cc",28333.178,1,0.100,29713.000,0.200,5555.000,0.300,456.000,0.500,97.000,1.000,36.000,5.000,0
"05/02/07","16:16:50",35383.000,"cc",28299.522,1,0.100,29503.000,0.200,5270.000,0.300,484.000,0.500,96.000,1.000,30.000,5.000,0
"05/02/07","16:16:56",34378.000,"cc",28274.664,1,0.100,28438.000,0.200,5346.000,0.300,454.000,0.500,101.000,1.000,39.000,5.000,0
"05/02/07","16:17:02",33701.000,"cc",28352.022,1,0.100,27869.000,0.200,5260.000,0.300,440.000,0.500,104.000,1.000,28.000,5.000,0
"05/02/07","16:17:08",32182.000,"cc",28355.154,1,0.100,26713.000,0.200,4896.000,0.300,436.000,0.500,103.000,1.000,34.000,5.000,0
"05/02/07","16:17:14",33007.000,"cc",28277.076,1,0.100,27293.000,0.200,5150.000,0.300,421.000,0.500,107.000,1.000,36.000,5.000,0
"05/02/07","16:17:20",33029.000,"cc",28302.643,1,0.100,27340.000,0.200,5109.000,0.300,453.000,0.500,97.000,1.000,30.000,5.000,0
"05/02/07","16:17:26",32717.000,"cc",28358.682,1,0.100,27190.000,0.200,4966.000,0.300,440.000,0.500,89.000,1.000,32.000,5.000,0